Fort Bragg, NC

5:36 AM EST on November 25, 2017 (GMT -0500)
Simmons Army Air Field

Weather History for KFBG - May, 2013

Change the Weather History Date:

Saturday, May 25, 2013

  Actual Average Record
Temperature  
Mean Temperature 61 °F -  
Max Temperature 76 °F 80 °F 97 °F (2011)
Min Temperature 47 °F 61 °F 47 °F (2013)
Degree Days  
Heating Degree Days 4    
Growing Degree Days 11 (Base 50)    
Moisture  
Dew Point 40 °F    
Average Humidity 49    
Maximum Humidity 80    
Minimum Humidity 26    
Precipitation  
Precipitation 0.00 in - - ()
Sea Level Pressure  
Sea Level Pressure 30.22 in    
Wind  
Wind Speed 5 mph (NNW)    
Max Wind Speed 12 mph    
Max Gust Speed 16 mph    
Visibility 10 miles    
Events      
Averages and records for this station are not official NWS values.
T = Trace of Precipitation, MM = Missing Value Source: NWS Daily Summary

Daily Weather History Graph

Daily Weather History Graph

Search for Another Location

Airport or City:

Trip Planner

Search our weather history database for the weather conditions in past years. The results will help you decide how hot, cold, wet, or windy it might be!

Date:

Astronomy

May. 25, 2013 Rise Set
Actual Time 6:05 AM EDT 8:20 PM EDT
Civil Twilight 5:36 AM EDT 8:49 PM EDT
Nautical Twilight 5:01 AM EDT 9:24 PM EDT
Astronomical Twilight 4:22 AM EDT 10:03 PM EDT
Moon 9:06 PM EDT 6:29 AM EDT
Length of Visible Light 15h 12m
Length of Day
14h 14m
Full, 100% of the Moon is Illuminated
May 25
Full
May 31
Last Quarter
Jun 8
New
Jun 16
First Quarter
Jun 23
Full

Hourly Weather History & Observations

Time (EDT) Temp. Dew Point Humidity Pressure Visibility Wind Dir Wind Speed Gust Speed Precip Events Conditions
12:58 AM 54.3 °F 39.7 °F 58% 30.21 in 10.0 mi North 4.6 mph - N/A   Clear
1:58 AM 53.8 °F 37.6 °F 54% 30.21 in 10.0 mi North 6.9 mph - N/A   Clear
2:58 AM 52.2 °F 38.1 °F 59% 30.20 in 10.0 mi NNW 5.8 mph - N/A   Clear
3:58 AM 50.5 °F 37.8 °F 62% 30.21 in 10.0 mi NW 4.6 mph - N/A   Clear
4:58 AM 47.3 °F 39.6 °F 74% 30.21 in 10.0 mi NNW 2.3 mph - N/A   Clear
5:58 AM 47.7 °F 38.3 °F 70% 30.23 in 10.0 mi NW 4.6 mph - N/A   Clear
6:58 AM 48.6 °F 40.8 °F 75% 30.24 in 10.0 mi North 4.6 mph - N/A   Clear
7:58 AM 53.6 °F 41.5 °F 64% 30.27 in 10.0 mi North 4.6 mph - N/A   Clear
8:58 AM 57.7 °F 39.9 °F 51% 30.30 in 10.0 mi NNE 8.1 mph - N/A   Clear
9:58 AM 60.4 °F 37.2 °F 42% 30.31 in 10.0 mi Variable 4.6 mph - N/A   Clear
10:58 AM 62.4 °F 38.1 °F 41% 30.29 in 10.0 mi WNW 6.9 mph - N/A   Clear
11:58 AM 65.5 °F 36.1 °F 34% 30.28 in 10.0 mi NW 9.2 mph - N/A   Clear
12:58 PM 68.0 °F 37.6 °F 33% 30.26 in 10.0 mi NNW 5.8 mph - N/A   Clear
1:58 PM 70.3 °F 37.6 °F 30% 30.23 in 10.0 mi NW 5.8 mph 16.1 mph N/A   Clear
2:58 PM 72.9 °F 35.6 °F 26% 30.20 in 10.0 mi NNW 5.8 mph - N/A   Clear
3:58 PM 74.7 °F 37.2 °F 26% 30.17 in 10.0 mi WNW 8.1 mph - N/A   Clear
4:58 PM 75.4 °F 38.1 °F 26% 30.16 in 10.0 mi WNW 8.1 mph - N/A   Clear
5:58 PM 75.7 °F 39.0 °F 27% 30.16 in 10.0 mi West 9.2 mph - N/A   Clear
6:58 PM 73.8 °F 37.6 °F 27% 30.16 in 10.0 mi WNW 11.5 mph - N/A   Clear
7:58 PM 73.0 °F 39.4 °F 30% 30.16 in 10.0 mi NNW 3.5 mph - N/A   Clear
8:58 PM 67.3 °F 47.5 °F 49% 30.16 in 10.0 mi Calm Calm - N/A   Clear
9:58 PM 61.3 °F 53.8 °F 76% 30.17 in 10.0 mi Calm Calm - N/A   Clear
10:58 PM 59.9 °F 53.8 °F 80% 30.19 in 10.0 mi Calm Calm - N/A   Clear
11:58 PM 60.3 °F 48.2 °F 64% 30.19 in 10.0 mi North 3.5 mph - N/A   Clear